Time,TemperatureF,DewpointF,PressureIn,WindDirection,WindDirectionDegrees,WindSpeedMPH,WindSpeedGustMPH,Humidity,HourlyPrecipIn,Conditions,Clouds,dailyrainin,SoftwareType,DateUTC
2013-07-31 00:01:00,69.0,47.0,30.12,North,360,12.0,15.0,45,0.00,,,0.00,,2013-07-31 07:01:00,
2013-07-31 00:32:00,69.0,47.0,30.11,North,360,7.0,13.0,45,0.00,,,0.00,,2013-07-31 07:32:00,
2013-07-31 00:52:00,69.0,46.0,30.11,NNW,339,8.0,13.0,44,0.00,,,0.00,,2013-07-31 07:52:00,
2013-07-31 01:02:00,69.0,46.0,30.11,North,5,6.0,12.0,44,0.00,,,0.00,,2013-07-31 08:02:00,
2013-07-31 01:11:00,69.0,46.0,30.11,North,5,6.0,12.0,44,0.00,,,0.00,,2013-07-31 08:11:00,
2013-07-31 01:22:00,68.0,45.0,30.11,NNW,348,5.0,10.0,44,0.00,,,0.00,,2013-07-31 08:22:00,
2013-07-31 01:32:00,69.0,45.0,30.11,North,9,4.0,9.0,42,0.00,,,0.00,,2013-07-31 08:32:00,
2013-07-31 01:42:00,69.0,45.0,30.11,North,9,4.0,9.0,42,0.00,,,0.00,,2013-07-31 08:42:00,
2013-07-31 01:53:00,69.0,45.0,30.11,North,9,4.0,9.0,42,0.00,,,0.00,,2013-07-31 08:53:00,
2013-07-31 02:02:00,68.0,45.0,30.10,NNW,347,3.0,7.0,44,0.00,,,0.00,,2013-07-31 09:02:00,
2013-07-31 02:11:00,68.0,45.0,30.10,NNW,347,3.0,7.0,44,0.00,,,0.00,,2013-07-31 09:11:00,
2013-07-31 02:43:00,68.0,43.0,30.09,NNW,345,4.0,7.0,40,0.00,,,0.00,,2013-07-31 09:43:00,
2013-07-31 02:52:00,66.0,38.0,30.09,NNW,347,3.0,6.0,36,0.00,,,0.00,,2013-07-31 09:52:00,
2013-07-31 03:01:00,67.0,39.0,30.09,NNW,347,4.0,7.0,36,0.00,,,0.00,,2013-07-31 10:01:00,
2013-07-31 03:12:00,67.0,39.0,30.09,North,11,6.0,10.0,36,0.00,,,0.00,,2013-07-31 10:12:00,
2013-07-31 03:22:00,66.0,35.0,30.09,North,350,4.0,7.0,32,0.00,,,0.00,,2013-07-31 10:22:00,
2013-07-31 03:32:00,66.0,35.0,30.09,North,350,4.0,7.0,32,0.00,,,0.00,,2013-07-31 10:32:00,
2013-07-31 03:44:00,66.0,35.0,30.09,North,350,4.0,7.0,32,0.00,,,0.00,,2013-07-31 10:44:00,
2013-07-31 03:52:00,65.0,33.0,30.09,NNE,15,6.0,7.0,30,0.00,,,0.00,,2013-07-31 10:52:00,
2013-07-31 04:12:00,65.0,34.0,30.08,North,360,5.0,7.0,31,0.00,,,0.00,,2013-07-31 11:12:00,
2013-07-31 04:22:00,65.0,34.0,30.08,North,355,5.0,7.0,31,0.00,,,0.00,,2013-07-31 11:22:00,
2013-07-31 04:43:00,65.0,30.0,30.08,NNE,20,5.0,7.0,27,0.00,,,0.00,,2013-07-31 11:43:00,
2013-07-31 08:33:00,66.0,20.0,30.10,NNW,342,0.0,1.0,17,0.00,,,0.00,,2013-07-31 15:33:00,
2013-07-31 08:43:00,69.0,25.0,30.11,NNW,342,0.0,0.0,19,0.00,,,0.00,,2013-07-31 15:43:00,
2013-07-31 08:52:00,70.0,26.0,30.11,NNW,342,0.0,0.0,19,0.00,,,0.00,,2013-07-31 15:52:00,
2013-07-31 09:02:00,71.0,27.0,30.11,NNW,342,0.0,1.0,19,0.00,,,0.00,,2013-07-31 16:02:00,
2013-07-31 09:22:00,74.0,26.0,30.11,SSW,213,4.0,7.0,17,0.00,,,0.00,,2013-07-31 16:22:00,
2013-07-31 09:43:00,75.0,29.0,30.11,South,182,4.0,8.0,18,0.00,,,0.00,,2013-07-31 16:43:00,
2013-07-31 11:12:00,78.0,21.0,30.11,South,170,9.0,12.0,12,0.00,,,0.00,,2013-07-31 18:12:00,
2013-07-31 11:22:00,79.0,24.0,30.11,SSW,211,5.0,13.0,13,0.00,,,0.00,,2013-07-31 18:22:00,
2013-07-31 11:32:00,79.0,24.0,30.11,SSW,211,5.0,13.0,13,0.00,,,0.00,,2013-07-31 18:32:00,
2013-07-31 11:43:00,80.0,21.0,30.11,SW,215,7.0,14.0,11,0.00,,,0.00,,2013-07-31 18:43:00,
2013-07-31 12:02:00,81.0,26.0,30.11,SSW,192,6.0,10.0,13,0.00,,,0.00,,2013-07-31 19:02:00,
2013-07-31 12:32:00,82.0,12.0,30.10,SSW,211,10.0,16.0,7,0.00,,,0.00,,2013-07-31 19:32:00,
2013-07-31 12:52:00,81.0,17.0,30.10,SW,225,9.0,15.0,9,0.00,,,0.00,,2013-07-31 19:52:00,
2013-07-31 13:02:00,81.0,17.0,30.10,SW,225,9.0,15.0,9,0.00,,,0.00,,2013-07-31 20:02:00,
2013-07-31 13:11:00,81.0,19.0,30.10,South,169,7.0,19.0,10,0.00,,,0.00,,2013-07-31 20:11:00,
2013-07-31 13:22:00,81.0,19.0,30.10,SE,140,6.0,18.0,10,0.00,,,0.00,,2013-07-31 20:22:00,
2013-07-31 13:42:00,82.0,24.0,30.09,SE,137,6.0,16.0,12,0.00,,,0.00,,2013-07-31 20:42:00,
2013-07-31 13:52:00,82.0,22.0,30.09,South,184,11.0,17.0,11,0.00,,,0.00,,2013-07-31 20:52:00,
2013-07-31 14:01:00,82.0,22.0,30.09,South,184,11.0,17.0,11,0.00,,,0.00,,2013-07-31 21:01:00,
2013-07-31 14:11:00,82.0,22.0,30.09,South,184,11.0,17.0,11,0.00,,,0.00,,2013-07-31 21:11:00,
2013-07-31 14:53:00,81.0,22.0,30.09,SSE,159,7.0,21.0,11,0.00,,,0.00,,2013-07-31 21:53:00,
2013-07-31 16:02:00,82.0,18.0,30.07,SSE,148,5.0,12.0,9,0.00,,,0.00,,2013-07-31 23:02:00,
2013-07-31 16:42:00,81.0,14.0,30.06,SW,217,2.0,17.0,8,0.00,,,0.00,,2013-07-31 23:42:00,
2013-07-31 16:52:00,82.0,15.0,30.06,SSW,195,8.0,12.0,8,0.00,,,0.00,,2013-07-31 23:52:00,
2013-07-31 17:42:00,80.0,16.0,30.05,SSW,196,6.0,13.0,9,0.00,,,0.00,,2013-08-01 00:42:00,
2013-07-31 17:52:00,79.0,15.0,30.05,SSE,157,7.0,13.0,9,0.00,,,0.00,,2013-08-01 00:52:00,
2013-07-31 18:02:00,79.0,18.0,30.05,SSW,204,4.0,10.0,10,0.00,,,0.00,,2013-08-01 01:02:00,
2013-07-31 18:11:00,79.0,18.0,30.05,SSW,204,4.0,10.0,10,0.00,,,0.00,,2013-08-01 01:11:00,
2013-07-31 18:32:00,78.0,19.0,30.04,South,184,3.0,9.0,11,0.00,,,0.00,,2013-08-01 01:32:00,
2013-07-31 18:42:00,78.0,19.0,30.04,South,184,3.0,9.0,11,0.00,,,0.00,,2013-08-01 01:42:00,
2013-07-31 18:53:00,76.0,43.0,30.04,NNE,22,5.0,9.0,31,0.00,,,0.00,,2013-08-01 01:53:00,
2013-07-31 19:01:00,76.0,43.0,30.04,NNE,22,5.0,9.0,31,0.00,,,0.00,,2013-08-01 02:01:00,
2013-07-31 19:43:00,73.0,45.0,30.04,NNW,330,9.0,14.0,37,0.00,,,0.00,,2013-08-01 02:43:00,
2013-07-31 20:53:00,70.0,42.0,30.04,North,355,11.0,18.0,36,0.00,,,0.00,,2013-08-01 03:53:00,
2013-07-31 21:01:00,70.0,40.0,30.04,NNW,338,11.0,18.0,34,0.00,,,0.00,,2013-08-01 04:01:00,
2013-07-31 21:11:00,70.0,41.0,30.04,North,355,10.0,18.0,35,0.00,,,0.00,,2013-08-01 04:11:00,
2013-07-31 21:22:00,70.0,41.0,30.04,North,355,10.0,18.0,35,0.00,,,0.00,,2013-08-01 04:22:00,
2013-07-31 21:33:00,70.0,41.0,30.04,North,355,10.0,18.0,35,0.00,,,0.00,,2013-08-01 04:33:00,
2013-07-31 22:12:00,69.0,44.0,30.05,North,351,12.0,19.0,41,0.00,,,0.00,,2013-08-01 05:12:00,
2013-07-31 22:32:00,70.0,43.0,30.05,North,360,14.0,21.0,38,0.00,,,0.00,,2013-08-01 05:32:00,
2013-07-31 22:43:00,70.0,43.0,30.05,North,360,14.0,21.0,38,0.00,,,0.00,,2013-08-01 05:43:00,
2013-07-31 22:53:00,70.0,43.0,30.04,NNW,343,15.0,24.0,37,0.00,,,0.00,,2013-08-01 05:53:00,
2013-07-31 23:01:00,70.0,43.0,30.04,North,349,14.0,24.0,37,0.00,,,0.00,,2013-08-01 06:01:00,
2013-07-31 23:32:00,68.0,44.0,30.04,North,5,12.0,22.0,42,0.00,,,0.00,,2013-08-01 06:32:00,
2013-07-31 23:42:00,68.0,44.0,30.04,NNE,20,15.0,24.0,42,0.00,,,0.00,,2013-08-01 06:42:00,
2013-07-31 23:52:00,68.0,44.0,30.04,NNE,20,15.0,24.0,42,0.00,,,0.00,,2013-08-01 06:52:00,